[[[{"header":{"parameterUnit":"kt","parameterCategory":2,"dx":1,"dy":1,"la1":30.253999710083008,"la2":30.299108505249023,"lo1":-89.0895004272461,"lo2":-89.04439544677734,"nx":28,"ny":28,"refTime":"2022-09-23T21:00:00:Z","depth":0,"parameterNumber":1,"parameterNumberName":"U-component_of_WINDS"},"data":[-2.0014,-2.0091,-2.0007,-2.0057,-1.999,-2.001,-1.9991,-1.9957,-1.9909,-1.9926,-1.9921,-1.9845,-1.9765,-1.974,-1.9731,-1.9698,-1.9701,-1.9791,-1.9736,-1.9407,-1.9356,-1.9308,-1.9282,-1.9793,-1.9793,-2.0087,-2.009,-2.0092,-1.9786,-1.9719,-1.9721,-1.9664,-1.9665,-1.9527,-1.9472,-1.9482,-1.9505,-1.9446,-1.9435,-1.9444,-1.944,-1.9326,-1.9308,-1.9345,-1.9279,-1.9346,-1.9342,-1.9331,-1.8977,-1.8951,-1.94,-1.94,-1.94,-1.9399,-1.9399,-1.9399,-1.9346,-1.9396,-1.931,-1.9309,-1.9258,-1.9221,-1.9254,-1.9157,-1.9158,-1.9126,-1.9024,-1.9049,-1.8974,-1.891,-1.8868,-1.8885,-1.8796,-1.8842,-1.8854,-1.8868,-1.8896,-1.8484,-1.8878,-1.8877,-1.8875,-1.8874,-1.8873,0,-1.8997,-1.8922,-1.8915,-1.8885,-1.8879,-1.8847,-1.8803,-1.8822,-1.8632,-1.8641,-1.8647,-1.8636,-1.8616,-1.8613,-1.8577,-1.8521,-1.8379,-1.8355,-1.8387,-1.8436,-1.8487,-1.8461,-1.7888,-1.8344,-1.8339,-1.8335,-1.8333,-1.8331,-1.8548,-1.8615,-1.8482,-1.8489,-1.8442,-1.8458,-1.8449,-1.8275,-1.8274,-1.8195,-1.8249,-1.8242,-1.8228,-1.8254,-1.814,-1.8125,-1.8055,-1.8239,-1.8052,-1.8098,-1.8058,-1.8056,-1.8062,-1.8279,-1.8285,-1.8291,-1.8295,0,-1.8303,-1.8158,-1.8234,-1.8093,-1.8061,-1.8141,-1.8022,-1.8065,-1.7964,-1.8009,-1.801,-1.7853,-1.7862,-1.7716,-1.7698,-1.7621,-1.7757,-1.7689,-1.7782,-1.776,-1.791,-1.7898,-1.8419,-1.8478,-1.7947,-1.7953,-1.7957,0,-1.7862,-1.7957,-1.7735,-1.7786,-1.7886,-1.7706,-1.7811,-1.7733,-1.7661,-1.7695,-1.7507,-1.7544,-1.735,-1.7366,-1.7254,-1.7338,-1.7334,-1.7281,-1.725,-1.7297,-1.7304,-1.7294,-1.727,-1.7176,-1.7173,-1.7171,-1.7169,0,-1.7493,-1.7484,-1.7566,-1.754,-1.7399,-1.7443,-1.7387,-1.7303,-1.7297,-1.7264,-1.7258,-1.7235,-1.7223,-1.7209,-1.7064,-1.6943,-1.7163,-1.6966,-1.7108,-1.7112,-1.7164,-1.7163,-1.7661,-1.7166,-1.7165,-1.7164,-1.7163,0,-1.7113,-1.7079,-1.722,-1.7097,-1.7102,-1.7157,-1.7118,-1.7131,-1.7057,-1.6987,-1.6961,-1.6817,-1.6876,-1.6692,-1.6773,-1.6656,-1.6656,-1.6609,-1.6616,-1.6612,-1.6409,-1.671,-1.72,-1.7245,-1.6611,-1.6606,-1.6602,0,-1.6731,-1.6832,-1.6674,-1.6813,-1.6838,-1.6621,-1.668,-1.6618,-1.6529,-1.654,-1.6442,-1.6457,-1.6287,-1.6271,-1.633,-1.6231,-1.6383,-1.6206,-1.6228,-1.6231,-1.6254,-1.6702,-1.6811,-1.7109,-1.6541,-1.6547,-1.6552,0,-1.6415,-1.6237,-1.6272,-1.6234,-1.612,-1.614,-1.6208,-1.6179,-1.6194,-1.6146,-1.6198,-1.6214,-1.6087,-1.6062,-1.5942,-1.6012,-1.6275,-1.5866,-1.5861,-1.5945,-1.6497,-1.66,-1.6651,-1.6179,-1.6186,-1.6192,-1.6503,0,-1.5874,-1.5903,-1.5992,-1.5914,-1.5905,-1.5982,-1.5818,-1.5831,-1.5714,-1.5616,-1.5691,-1.5601,-1.5574,-1.5591,-1.5478,-1.5684,-1.5626,-1.549,-1.5299,-1.5595,-1.5693,-1.5733,-1.5165,-1.5159,-1.5153,-1.5149,0,0,-1.5545,-1.5581,-1.5404,-1.5458,-1.544,-1.521,-1.5307,-1.5263,-1.518,-1.5174,-1.5065,-1.5076,-1.5008,-1.5116,-1.5195,-1.5185,-1.5207,-1.5109,-1.5455,-1.549,-1.5522,-1.563,-1.5674,-1.5139,-1.5137,-1.5135,-1.5133,0,-1.5311,-1.524,-1.5336,-1.528,-1.5191,-1.5081,-1.5105,-1.4977,-1.4918,-1.4988,-1.4799,-1.4824,-1.4837,-1.4789,-1.4767,-1.5092,-1.4949,-1.5097,-1.5325,-1.5405,-1.5447,-1.5484,-1.56,-1.5644,-1.512,-1.512,-1.5121,0,-1.497,-1.4873,-1.49,-1.4843,-1.4783,-1.4815,-1.4572,-1.4616,-1.4638,-1.4385,-1.4458,-1.4387,-1.4309,-1.4432,-1.448,-1.4383,-1.4723,-1.4587,-1.4617,-1.4619,-1.4688,-1.4739,-1.4785,-1.4186,-1.4183,-1.4181,0,0,-1.4791,-1.4815,-1.4654,-1.478,-1.4756,-1.4592,-1.4591,-1.4472,-1.4404,-1.4378,-1.4281,-1.4224,-1.4229,-1.4237,-1.4233,-1.4391,-1.4361,-1.4478,-1.4522,-1.4559,-1.4581,-1.466,-1.471,-1.4171,-1.4171,-1.4171,0,0,-1.4705,-1.4522,-1.4413,-1.4537,-1.4478,-1.433,-1.4414,-1.4278,-1.4256,-1.4229,-1.4032,-1.4008,-1.4119,-1.4057,-1.3945,-1.4162,-1.3976,-1.3999,-1.4198,-1.4251,-1.4294,-1.4307,-1.3684,0,0,0,0,0,-1.4378,-1.4543,-1.4447,-1.4443,-1.4369,-1.4383,-1.4373,-1.4212,-1.4083,-1.4154,-1.4051,-1.3896,-1.3955,-1.3851,-1.3852,-1.3979,-1.4045,-1.4067,-1.4089,-1.4381,-1.4439,-1.4487,0,0,0,0,0,0,-1.4375,-1.4371,-1.4442,-1.4303,-1.4285,-1.4376,-1.4122,-1.4082,-1.4071,-1.404,-1.3921,-1.3892,-1.3757,-1.384,-1.3843,-1.3967,-1.3683,-1.4054,-1.4073,-1.409,-1.4401,-1.4448,-1.4488,0,0,0,0,0,-1.4372,-1.4368,-1.4292,-1.4299,-1.4284,-1.4109,-1.4114,-1.4079,-1.4068,-1.3908,-1.3874,-1.3947,-1.3765,-1.3757,-1.3841,-1.397,-1.368,-1.3681,-1.4066,-1.4081,-1.4095,-1.4424,0,0,0,0,0,0,-1.4369,-1.4337,-1.4285,-1.4274,-1.4223,-1.41,-1.4075,-1.4077,-1.3933,-1.3901,-1.3924,-1.3901,-1.3773,-1.3765,-1.3759,-1.398,-1.3677,-1.3679,-1.368,-1.4078,-1.4089,-1.41,0,0,0,0,0,0,-1.4338,-1.433,-1.428,-1.4192,-1.417,-1.4094,-1.4071,-1.412,-1.3934,-1.3956,-1.3932,-1.3915,-1.3782,-1.3772,-1.3766,-1.3849,-1.3675,-1.3677,-1.3678,-1.3679,-1.4087,-1.4096,0,0,0,0,0,0,-1.4332,-1.4324,-1.4194,-1.4177,-1.4157,-1.4025,-1.4133,-1.4069,-1.3857,-1.3966,-1.3834,-1.3823,-1.3794,-1.3784,-1.3773,-1.3858,-1.3851,-1.3675,-1.3676,-1.3677,-1.3677,0,0,0,0,0,0,0,-1.4326,-1.4412,-1.4348,-1.4165,-1.4146,-1.4176,-1.4173,-1.417,-1.3855,-1.3845,-1.3836,-1.3828,-1.3665,-1.3667,-1.3669,-1.3866,0,0,-1.3675,-1.3676,0,0,0,0,0,0,0,0,-1.4411,-1.4412,-1.4348,-1.4346,-1.4344,-1.4175,-1.4173,-1.4171,-1.3853,-1.3846,-1.3838,-1.3831,-1.3666,-1.3667,-1.3669,0,0,0,0,0,0,0,0,0,0,0,0,0,0,0,-1.4348,-1.4346,0,-1.4175,-1.4173,-1.4171,-1.3852,-1.3846,-1.384,-1.3834,-1.3666,-1.3667,-1.3669,0,0,0,0,0,0,0,0,0,0,0,0,0,0,0,0,0,0,0,0,0,0,0,0,0,0,0,0,0,0,0,0,0,0,0,0,0,0,0,0,0,0,0,0,0,0,0,0,0,0,0,0,0,0,0,0,0,0,0,0,0,0,0,0,0,0,0,0,0]}],[{"header":{"parameterUnit":"kt","parameterCategory":2,"dx":1,"dy":1,"la1":30.253999710083008,"la2":30.299108505249023,"lo1":-89.0895004272461,"lo2":-89.04439544677734,"nx":28,"ny":28,"refTime":"2022-09-23T21:00:00:Z","depth":0,"parameterNumber":2,"parameterNumberName":"V-component_of_WINDS"},"data":[0.1874,0.1823,0.1829,0.1773,0.177,0.1732,0.1721,0.1707,0.1698,0.1654,0.1629,0.1631,0.1623,0.1595,0.1569,0.157,0.1556,0.1533,0.1537,0.1637,0.1651,0.1664,0.1676,0.1531,0.1531,0.1432,0.1431,0.143,0.1946,0.1942,0.1915,0.1893,0.187,0.1896,0.1881,0.1859,0.1825,0.1813,0.179,0.1751,0.1722,0.1722,0.1694,0.1669,0.1678,0.1661,0.166,0.1658,0.1766,0.1778,0.1653,0.1653,0.1653,0.1653,0.1653,0.1653,0.2077,0.2046,0.2037,0.2008,0.1999,0.1984,0.1956,0.1958,0.1932,0.1904,0.1918,0.1879,0.1868,0.1838,0.1829,0.1798,0.1819,0.18,0.1795,0.1789,0.1781,0.1917,0.1794,0.1795,0.1795,0.1795,0.1796,0,0.2174,0.2182,0.2157,0.2133,0.2113,0.2095,0.208,0.2063,0.2081,0.2058,0.2025,0.2007,0.1972,0.194,0.1916,0.1911,0.1933,0.1937,0.1924,0.1914,0.1908,0.1907,0.2078,0.194,0.1941,0.1942,0.1942,0.1943,0.2304,0.2268,0.2263,0.2244,0.2237,0.2207,0.219,0.221,0.219,0.2174,0.2146,0.2116,0.2092,0.2038,0.204,0.2013,0.2022,0.1968,0.2018,0.2011,0.2017,0.2017,0.2012,0.1956,0.1955,0.1953,0.1952,0,0.2375,0.2387,0.2334,0.2332,0.2331,0.2292,0.2289,0.226,0.2266,0.2225,0.2216,0.2224,0.2192,0.2203,0.2167,0.2174,0.2106,0.2119,0.211,0.2112,0.2061,0.2064,0.1904,0.1882,0.2037,0.2035,0.2034,0,0.2488,0.2441,0.2461,0.2429,0.2377,0.2398,0.2345,0.2345,0.2337,0.2305,0.2334,0.2303,0.2323,0.2293,0.2303,0.2251,0.2245,0.2245,0.2248,0.224,0.224,0.2226,0.2231,0.2259,0.226,0.2261,0.2261,0,0.2596,0.2552,0.2502,0.2494,0.2486,0.2462,0.2458,0.2449,0.2432,0.2412,0.2401,0.2376,0.2362,0.2342,0.2353,0.2387,0.2292,0.2339,0.2291,0.229,0.2266,0.2266,0.2126,0.2262,0.2263,0.2263,0.2263,0,0.2687,0.2668,0.2595,0.2589,0.2576,0.2543,0.252,0.2495,0.2483,0.2487,0.2472,0.2491,0.2449,0.2495,0.2437,0.2476,0.246,0.2457,0.2454,0.2447,0.2497,0.2411,0.2279,0.2264,0.2446,0.2447,0.2449,0,0.2805,0.2735,0.2751,0.2681,0.265,0.2684,0.2648,0.2637,0.2639,0.2612,0.2615,0.2584,0.2621,0.2612,0.2583,0.2583,0.2532,0.2591,0.2547,0.2545,0.2545,0.2425,0.24,0.2308,0.2468,0.2466,0.2465,0,0.2897,0.2889,0.2875,0.2866,0.2856,0.283,0.2789,0.2764,0.2744,0.273,0.2694,0.2653,0.2678,0.2663,0.2676,0.2644,0.2567,0.2675,0.2675,0.2652,0.2481,0.2457,0.2442,0.2583,0.258,0.2578,0.2481,0,0.3026,0.2993,0.2958,0.2938,0.292,0.2878,0.289,0.287,0.2884,0.2887,0.2837,0.2831,0.2803,0.279,0.2803,0.2728,0.2741,0.2769,0.281,0.2734,0.2701,0.2688,0.2858,0.2859,0.286,0.2861,0,0,0.3133,0.3086,0.3106,0.3068,0.3053,0.3089,0.3042,0.3032,0.3012,0.3,0.3025,0.2964,0.2957,0.2894,0.2871,0.2861,0.2847,0.2874,0.2771,0.2761,0.2752,0.2717,0.2703,0.2863,0.2864,0.2864,0.2865,0,0.3182,0.3177,0.3132,0.3123,0.3111,0.3117,0.3106,0.31,0.3099,0.3052,0.3079,0.305,0.3002,0.2989,0.2977,0.2883,0.2904,0.2875,0.2819,0.2782,0.2771,0.276,0.2724,0.2711,0.2867,0.2867,0.2867,0,0.3272,0.3268,0.3248,0.322,0.3211,0.3179,0.3227,0.3192,0.3167,0.3205,0.3156,0.3154,0.3139,0.308,0.3053,0.3074,0.2954,0.2995,0.2988,0.2984,0.2949,0.2935,0.2922,0.3085,0.3085,0.3086,0,0,0.3312,0.3282,0.3283,0.3231,0.3224,0.3232,0.3217,0.3229,0.3216,0.3211,0.3208,0.3193,0.3165,0.3146,0.312,0.3054,0.305,0.3021,0.3011,0.3003,0.2994,0.2956,0.2943,0.3089,0.3089,0.3089,0,0,0.333,0.3329,0.3346,0.3288,0.3275,0.3272,0.3238,0.3259,0.3237,0.3242,0.3261,0.3257,0.3202,0.3198,0.3233,0.3134,0.3177,0.3168,0.3138,0.3125,0.3115,0.3116,0.3279,0,0,0,0,0,0.3385,0.333,0.3345,0.3337,0.3301,0.3264,0.3259,0.3273,0.3302,0.3276,0.3276,0.33,0.3221,0.3252,0.3243,0.3202,0.3123,0.3117,0.3111,0.3057,0.3043,0.3032,0,0,0,0,0,0,0.3382,0.3373,0.3347,0.3341,0.3333,0.3266,0.3318,0.3321,0.3306,0.3311,0.33,0.33,0.3311,0.3257,0.3249,0.321,0.3282,0.3121,0.3116,0.3111,0.3052,0.3041,0.3032,0,0,0,0,0,0.338,0.3372,0.3311,0.3342,0.3335,0.334,0.3321,0.3323,0.3311,0.3312,0.3313,0.3323,0.3309,0.3303,0.3252,0.3214,0.3288,0.3285,0.3117,0.3113,0.311,0.3047,0,0,0,0,0,0,0.3378,0.3374,0.3309,0.3308,0.3364,0.3344,0.3342,0.3325,0.3313,0.3314,0.3337,0.3341,0.3308,0.3303,0.3298,0.3214,0.3293,0.3289,0.3287,0.3114,0.3111,0.3108,0,0,0,0,0,0,0.3378,0.3372,0.3309,0.3336,0.3337,0.3348,0.3346,0.3305,0.3313,0.3339,0.3342,0.3339,0.3314,0.3303,0.3299,0.3235,0.3296,0.3293,0.3291,0.329,0.3112,0.3109,0,0,0,0,0,0,0.3376,0.337,0.3336,0.3337,0.3339,0.3322,0.3312,0.3274,0.3338,0.3339,0.3344,0.3346,0.3313,0.331,0.33,0.3237,0.3235,0.3296,0.3294,0.3293,0.3292,0,0,0,0,0,0,0,0.3374,0.3405,0.3319,0.3339,0.334,0.3293,0.3292,0.3292,0.3338,0.3341,0.3343,0.3345,0.3314,0.3311,0.3307,0.3238,0,0,0.3297,0.3295,0,0,0,0,0,0,0,0,0.3408,0.3406,0.3319,0.3319,0.3319,0.3293,0.3292,0.3292,0.3339,0.334,0.3342,0.3344,0.3313,0.331,0.3308,0,0,0,0,0,0,0,0,0,0,0,0,0,0,0,0.3319,0.3319,0,0.3293,0.3292,0.3292,0.3339,0.334,0.3342,0.3344,0.3312,0.331,0.3308,0,0,0,0,0,0,0,0,0,0,0,0,0,0,0,0,0,0,0,0,0,0,0,0,0,0,0,0,0,0,0,0,0,0,0,0,0,0,0,0,0,0,0,0,0,0,0,0,0,0,0,0,0,0,0,0,0,0,0,0,0,0,0,0,0,0,0,0,0]}]]]